This is the latest recevied weather packets stored in our database for station/object F1ZVN-13. If no packets are shown the sender has not sent any weather packets the latest 10 day(s).
| Time | Temp. | Humidity | Pressure | Rain* | Wind** | Luminosity | Snow |
|---|---|---|---|---|---|---|---|
| 1778177259 | 3.89° C | 85% | 1003.6 hPa | 0 mm | 0 m/s | - | - |
| 1778177015 | 4.44° C | 85% | 1003.6 hPa | 0 mm | 0 m/s | - | - |
| 1778176654 | 4.44° C | 84% | 1003.3 hPa | 0 mm | 0 m/s | - | - |
| 1778176413 | 4.44° C | 84% | 1003.4 hPa | 0 mm | 0 m/s | - | - |
| 1778176170 | 4.44° C | 83% | 1003.4 hPa | 0 mm | 0 m/s | - | - |
| 1778176047 | 4.44° C | 84% | 1003.4 hPa | 0 mm | 0 m/s | - | - |
| 1778175932 | 4.44° C | 84% | 1003.4 hPa | 0 mm | 0 m/s | - | - |
| 1778175841 | 4.44° C | 83% | 1003.3 hPa | 0 mm | 0 m/s | - | - |
| 1778175805 | 4.44° C | 83% | 1003.3 hPa | 0 mm | 0 m/s | - | - |
| 1778175689 | 4.44° C | 84% | 1003.3 hPa | 0 mm | 0 m/s | - | - |
| 1778175442 | 3.89° C | 84% | 1003.3 hPa | 0 mm | 0 m/s | - | - |
| 1778175319 | 4.44° C | 83% | 1003.3 hPa | 0 mm | 0 m/s | - | - |
| 1778175201 | 4.44° C | 83% | 1003.3 hPa | 0 mm | 0 m/s | - | - |
| 1778175091 | 4.44° C | 84% | 1003.3 hPa | 0 mm | 0 m/s | - | - |
| 1778174715 | 5° C | 83% | 1003.3 hPa | 0 mm | 0 m/s | - | - |
| 1778174594 | 5° C | 81% | 1003.2 hPa | 0 mm | 0 m/s | - | - |
| 1778174108 | 5° C | 85% | 1003.2 hPa | 0 mm | 0 m/s | - | - |
| 1778173988 | 5° C | 83% | 1003.2 hPa | 0 mm | 0 m/s | - | - |
| 1778173866 | 5° C | 82% | 1003.2 hPa | 0 mm | 0 m/s | - | - |
| 1778173381 | 5.56° C | 80% | 1003.3 hPa | 0 mm | 0 m/s | - | - |
| 1778173018 | 6.11° C | 78% | 1003.3 hPa | 0 mm | 0 m/s | - | - |
| 1778172895 | 6.67° C | 78% | 1003.3 hPa | 0 mm | 0 m/s | - | - |
| 1778172820 | 6.67° C | 76% | 1003.3 hPa | 0 mm | 0 m/s | - | - |
| 1778172774 | 6.67° C | 76% | 1003.3 hPa | 0 mm | 0 m/s | - | - |
| 1778172531 | 7.22° C | 76% | 1003.2 hPa | 0 mm | 0 m/s | - | - |
* Rain latest hour (hover to see other rain measurements)
** Current wind speed in m/s (hover to see current wind gust speed)